Location: Observatoire de l'Aigle
(47.0607°N, 71.3152°W)
Time: 20:06:51
(UTC-04:00)

Amateur Radio Satellites - All Passes

Search period start: 28 May 2015 19:36
Search period end: 29 May 2015 19:36
Location: Observatoire de l'Aigle, 47.0607°N, 71.3152°W

Satellite Date Start Highest point End Downlink Frequencies (MHz)
Time Altitude Azimuth
CUBESAT XI-V 28 May 19:49:29 19:54:02 49° 289° (WNW) 19:58:34 437.345
Cubesat XI-IV 28 May 19:50:10 19:52:58 14° 274° (W) 19:55:31 437.490
CANX-2 28 May 19:50:33 19:54:23 34° 69° (ENE) 19:58:15 2200.000
CUTE 1.7 + AOD 2 28 May 19:53:50 19:57:39 33° 69° (ENE) 20:01:29 437.475
DOVE 4 28 May 20:02:00 20:06:57 48° 70° (ENE) 20:12:05 437.250
AIST 1 28 May 20:06:02 20:09:53 35° 92° (E) 20:13:50
CUBEBUG 2 28 May 20:08:05 20:10:55 16° 61° (ENE) 20:13:54 437.445
Oscar 11 28 May 20:10:01 20:12:37 16° 62° (ENE) 20:15:20 145.826/435.025
SEEDS 28 May 20:13:17 20:17:16 43° 71° (ENE) 20:21:17 437.485
STRAND 1 28 May 20:14:13 20:19:23 75° 287° (WNW) 20:24:32 437.568
AIST 2 28 May 20:22:00 20:25:43 28° 320° (NW) 20:29:25 435.215
BEESAT 2 28 May 20:22:19 20:24:35 14° 332° (NNW) 20:26:47 435.950
COMPASS 1 28 May 20:23:29 20:27:28 45° 71° (ENE) 20:31:28 437.405
PRISM 28 May 20:25:10 20:29:07 42° 290° (WNW) 20:33:04 437.425
HO-68 28 May 20:27:23 20:34:36 89° 252° (WSW) 20:41:50 435.675
AAUSAT CUBESAT 2 28 May 20:33:57 20:37:58 50° 72° (ENE) 20:42:01 437.432
YUBILEINY 28 May 20:35:32 20:42:03 23° 281° (W) 20:48:13 435.215
Cosmos 2504 28 May 20:35:54 20:42:56 52° 74° (ENE) 20:49:56 435.465 / 435.565
M-CUBED/EXP-1 PRIME 28 May 20:38:26 20:41:45 88° 96° (E) 20:45:05 437.505
Cosmos 2491 28 May 20:42:00 20:50:26 47° 290° (WNW) 20:58:54 435.465 / 435.565
AUBIESAT-1 28 May 20:44:46 20:48:06 89° 290° (WNW) 20:51:25 437.475
GOMX 1 28 May 20:48:00 20:53:06 51° 262° (W) 20:58:27 467.674
DELFI C3 28 May 20:49:16 20:52:35 26° 67° (ENE) 20:55:58 145.870
UWE-3 28 May 20:50:00 20:54:03 30° 67° (ENE) 20:58:07 435.000/436.395/437.385
FUNcube-1 28 May 20:55:12 20:58:59 26° 66° (ENE) 21:02:48 145.935
BRITE-PL 28 May 20:55:50 21:00:29 31° 268° (W) 21:05:21 437.365/2234.400
CINEMA 3 28 May 21:03:20 21:08:23 86° 73° (ENE) 21:13:27 145.822/145.860
AISAT 28 May 21:06:44 21:07:49 11° 57° (ENE) 21:09:06 437.250
HUMSAT D 28 May 21:15:39 21:18:47 20° 65° (ENE) 21:22:01 437.325/437.525
CANX-2 28 May 21:26:48 21:30:23 25° 267° (W) 21:33:54 2200.000
CUTE 1.7 + AOD 2 28 May 21:30:01 21:33:37 26° 266° (W) 21:37:11 437.475
UKube-1 28 May 21:34:18 21:38:05 31° 67° (ENE) 21:41:57 .
ZACube-1 28 May 21:35:41 21:40:14 64° 73° (ENE) 21:44:45 437.345
DOVE 4 28 May 21:40:32 21:44:57 27° 269° (W) 21:49:23 437.250
CUBEBUG 2 28 May 21:42:19 21:47:06 75° 259° (WSW) 21:51:52 437.445
Oscar 11 28 May 21:44:03 21:48:21 63° 259° (WSW) 21:52:41 145.826/435.025
AIST 1 28 May 21:44:11 21:47:41 23° 291° (WNW) 21:51:08
50 SAT 28 May 21:45:02 21:48:05 22° 66° (ENE) 21:51:12 437.505
DX 1 28 May 21:45:33 21:49:39 42° 70° (ENE) 21:53:50 434.975-435.025
SEEDS 28 May 21:50:10 21:53:18 20° 269° (W) 21:56:21 437.485
STRAND 1 28 May 21:55:28 21:57:49 13° 305° (NW) 21:59:58 437.568
COMPASS 1 28 May 22:00:23 22:03:24 19° 269° (W) 22:06:19 437.405
CUBEBUG 1 28 May 22:01:12 22:04:08 18° 62° (ENE) 22:07:11 437.445
VELOX 1 28 May 22:07:20 22:11:23 36° 68° (ENE) 22:15:31 145.980
AAUSAT CUBESAT 2 28 May 22:11:08 22:13:55 17° 270° (W) 22:16:33 437.432
ESTCUBE 1 28 May 22:18:08 22:21:59 29° 66° (ENE) 22:25:54 437.505/2401.250
HO-68 28 May 22:18:28 22:23:25 19° 274° (W) 22:28:04 435.675
DANDE 28 May 22:20:24 22:26:12 22° 53° (NE) 22:31:27 436.750
DELFI C3 28 May 22:24:01 22:27:37 30° 265° (W) 22:31:12 145.870
UWE-3 28 May 22:26:11 22:30:30 35° 264° (W) 22:34:46 435.000/436.395/437.385
Cosmos 2504 28 May 22:29:48 22:36:02 32° 274° (W) 22:42:06 435.465 / 435.565
FUNcube-1 28 May 22:30:52 22:35:09 38° 263° (W) 22:39:25 145.935
SPROUT 28 May 22:33:58 22:35:31 12° 59° (ENE) 22:37:15 437.525
ANTELSAT 28 May 22:36:32 22:39:58 23° 92° (E) 22:43:25 437.575/2403.000
CUSAT 1 28 May 22:38:34 22:44:55 31° 60° (ENE) 22:50:12 437.405
AISAT 28 May 22:39:13 22:43:41 78° 73° (ENE) 22:48:12 437.250
CINEMA 3 28 May 22:43:45 22:46:19 13° 275° (W) 22:48:37 145.822/145.860
Cosmos 2491 28 May 22:47:31 22:50:23 11° 318° (NW) 22:52:42 435.465 / 435.565
TISAT 1 28 May 22:49:16 22:51:02 13° 59° (ENE) 22:52:58 437.305
HUMSAT D 28 May 22:50:06 22:54:16 46° 261° (W) 22:58:26 437.325/437.525
ISS 28 May 23:03:46 23:06:41 31° 143° (SE) 23:09:38 145.825
GONETS M04 28 May 23:06:21 23:14:16 36° 65° (ENE) 23:22:13
QB50P1 28 May 23:07:07 23:10:26 22° 92° (E) 23:13:48 145.935-145.965
TIGRISAT 28 May 23:07:55 23:12:08 44° 98° (E) 23:16:16 435.000
POLYITAN 1 28 May 23:10:10 23:13:36 24° 93° (E) 23:17:06 437.675
UKube-1 28 May 23:10:24 23:14:13 29° 265° (W) 23:18:01 .
ZACube-1 28 May 23:14:11 23:17:03 16° 272° (W) 23:19:45 437.345
50 SAT 28 May 23:18:54 23:22:37 36° 263° (W) 23:26:19 437.505
PCSat 28 May 23:19:56 23:22:13 13° 104° (ESE) 23:24:48 145.827
DX 1 28 May 23:22:43 23:26:07 22° 268° (W) 23:29:28 434.975-435.025
O/OREOS (USA 219) 28 May 23:23:08 23:25:27 14° 44° (NE) 23:27:54 437.305
UNISAT 6 28 May 23:29:09 23:33:35 77° 101° (ESE) 23:37:54 437.425
CUBEBUG 1 28 May 23:35:49 23:40:07 56° 260° (W) 23:44:28 437.445
NANOSAT C BR1 28 May 23:37:11 23:41:17 43° 98° (E) 23:45:21 145.865
VELOX 1 28 May 23:44:18 23:48:03 26° 267° (W) 23:51:46 145.980
QB50P2 28 May 23:46:40 23:50:54 56° 100° (E) 23:55:06 145.880/145.840
ESTCUBE 1 28 May 23:54:44 23:58:49 33° 265° (W) 00:02:52 437.505/2401.250
POPSAT HIP 1 28 May 23:58:23 00:02:42 73° 102° (ESE) 00:06:57 437.405
DUCHIFAT 1 28 May 23:58:38 00:02:56 71° 102° (ESE) 00:07:09 145.980
DANDE 29 May 00:02:55 00:10:57 88° 79° (ENE) 00:17:14 436.750
SPROUT 29 May 00:06:39 00:10:59 90° 253° (WSW) 00:15:22 437.525
BUGSAT 1 29 May 00:12:28 00:16:45 71° 102° (ESE) 00:21:00 437.445
ANTELSAT 29 May 00:12:50 00:16:57 39° 291° (WNW) 00:20:57 437.575/2403.000
AISAT 29 May 00:18:57 00:20:55 12° 274° (W) 00:22:41 437.250
CUSAT 1 29 May 00:21:04 00:28:12 56° 267° (W) 00:33:41 437.405
TISAT 1 29 May 00:21:58 00:26:14 83° 256° (WSW) 00:30:33 437.305
BEESAT 3 29 May 00:29:08 00:31:51 17° 32° (NNE) 00:34:36 437.485
ITUPSAT 1 29 May 00:36:26 00:40:24 28° 65° (ENE) 00:44:28 437.325
ISS 29 May 00:39:47 00:43:00 56° 341° (NNW) 00:46:13 145.825
QB50P1 29 May 00:42:27 00:46:29 40° 290° (WNW) 00:50:28 145.935-145.965
BEESAT 29 May 00:42:33 00:46:42 32° 66° (ENE) 00:50:56 436.000
TIGRISAT 29 May 00:45:16 00:48:37 21° 296° (WNW) 00:51:50 435.000
POLYITAN 1 29 May 00:45:40 00:49:39 37° 291° (WNW) 00:53:33 437.675
SWISSCUBE 29 May 00:51:06 00:55:30 40° 68° (ENE) 00:59:58 437.505
Cosmos 2499 29 May 00:59:06 01:05:11 31° 66° (ENE) 01:11:24 435.465 / 435.565
PCSat 29 May 00:59:28 01:04:53 82° 122° (ESE) 01:10:22 145.827
O/OREOS (USA 219) 29 May 01:01:09 01:05:39 87° 65° (ENE) 01:10:08 437.305
GONETS M04 29 May 01:03:04 01:11:39 59° 268° (W) 01:20:07
UNISAT 6 29 May 01:07:31 01:09:48 14° 301° (WNW) 01:11:54 437.425
NANOSAT C BR1 29 May 01:13:35 01:16:53 21° 296° (WNW) 01:20:05 145.865
BEESAT 2 29 May 01:20:18 01:24:01 31° 42° (NE) 01:27:42 435.950
QB50P2 29 May 01:23:32 01:26:25 17° 298° (WNW) 01:29:10 145.880/145.840
AIST 2 29 May 01:24:00 01:26:45 17° 31° (NNE) 01:29:32 435.215
Oscar 19 29 May 01:32:39 01:37:01 28° 93° (E) 01:41:26 437.125/150
POPSAT HIP 1 29 May 01:35:44 01:38:04 14° 300° (WNW) 01:40:14 437.405
DUCHIFAT 1 29 May 01:35:53 01:38:14 14° 299° (WNW) 01:40:26 145.980
DANDE 29 May 01:47:39 01:52:58 20° 282° (WNW) 01:57:20 436.750
BUGSAT 1 29 May 01:49:19 01:51:44 15° 299° (WNW) 01:53:59 437.445
KKS-1 29 May 01:49:31 01:53:16 27° 66° (ENE) 01:57:07 437.445
ITAMSAT 1 29 May 01:52:50 01:55:08 13° 86° (E) 01:57:42 435.822/435.867
VERMONT LUNAR 29 May 01:59:43 02:02:06 19° 166° (SSE) 02:04:28 437.305
BEESAT 3 29 May 02:06:20 02:10:27 88° 52° (NE) 02:14:30 437.485
SO-50 29 May 02:13:21 02:17:05 24° 114° (ESE) 02:21:01 436.795
ITUPSAT 1 29 May 02:13:43 02:18:11 39° 263° (W) 02:22:39 437.325
ISS 29 May 02:16:45 02:19:47 35° 1° (N) 02:22:50 145.825
BEESAT 29 May 02:20:12 02:24:32 34° 264° (W) 02:28:51 436.000
SWISSCUBE 29 May 02:29:30 02:33:31 26° 267° (W) 02:37:28 437.505
Gurwin Techsat 1B 29 May 02:41:21 02:46:10 34° 95° (E) 02:51:01 435.225
O/OREOS (USA 219) 29 May 02:43:12 02:44:26 11° 262° (W) 02:45:25 437.305
PCSat 29 May 02:44:38 02:48:59 23° 323° (NW) 02:53:17 145.827
STARS 29 May 02:47:38 02:52:02 63° 73° (ENE) 02:56:29 437.465
Cosmos 2499 29 May 02:51:54 02:58:45 55° 268° (W) 03:05:39 435.465 / 435.565
PHONESAT 2.4 29 May 02:54:20 02:56:46 18° 162° (SSE) 02:59:15 2401.200-2431.200
BEESAT 2 29 May 02:58:20 03:02:09 36° 241° (WSW) 03:05:51 435.950
AIST 2 29 May 03:01:46 03:06:02 79° 52° (NE) 03:10:13 435.215
GONETS M04 29 May 03:03:36 03:06:43 12° 289° (WNW) 03:09:11
Oscar 19 29 May 03:11:40 03:16:34 43° 292° (WNW) 03:21:23 437.125/150
JAS-2 29 May 03:23:20 03:26:20 16° 88° (E) 03:29:35 435.910
KKS-1 29 May 03:25:39 03:29:48 36° 263° (W) 03:33:58 437.445
ITAMSAT 1 29 May 03:30:13 03:35:29 90° 290° (WNW) 03:40:44 435.822/435.867
MOZHAYETS 4 29 May 03:34:09 03:37:59 28° 66° (ENE) 03:41:54
VERMONT LUNAR 29 May 03:36:03 03:38:46 25° 183° (S) 03:41:28 437.305
BEESAT 3 29 May 03:46:40 03:47:50 11° 250° (WSW) 03:48:46 437.485
SO-50 29 May 03:52:40 03:57:20 55° 313° (NW) 04:02:10 436.795
ISS 29 May 03:53:18 03:56:33 65° 20° (NNE) 03:59:48 145.825
AO-7 29 May 04:04:57 04:12:23 35° 95° (E) 04:19:56 29.400- 29.500
HORYU 2 29 May 04:06:45 04:10:52 36° 97° (E) 04:14:58 437.375
Gurwin Techsat 1B 29 May 04:21:18 04:26:12 37° 294° (WNW) 04:31:01 435.225
STARS 29 May 04:26:17 04:28:59 15° 272° (W) 04:31:30 437.465
PHONESAT 2.4 29 May 04:31:19 04:34:20 27° 179° (S) 04:37:21 2401.200-2431.200
AIST 2 29 May 04:42:00 04:44:04 13° 249° (WSW) 04:45:56 435.215
Cosmos 2491 29 May 04:51:42 04:58:50 27° 60° (ENE) 05:06:09 435.465 / 435.565
JAS-2 29 May 05:07:00 05:12:10 71° 288° (WNW) 05:17:28 435.910
MOZHAYETS 4 29 May 05:10:54 05:15:07 36° 264° (W) 05:19:20
ITAMSAT 1 29 May 05:11:14 05:14:20 16° 303° (WNW) 05:17:15 435.822/435.867
VERMONT LUNAR 29 May 05:13:24 05:15:23 15° 199° (SSW) 05:17:19 437.305
CUBESAT XI-V 29 May 05:19:06 05:23:01 29° 66° (ENE) 05:27:01 437.345
ISS 29 May 05:30:00 05:32:47 25° 219° (SW) 05:35:32 145.825
SO-50 29 May 05:35:55 05:38:59 16° 336° (NNW) 05:42:02 436.795
PRISM 29 May 05:43:36 05:46:45 22° 65° (ENE) 05:50:00 437.425
HORYU 2 29 May 05:43:39 05:47:23 26° 295° (WNW) 05:51:00 437.375
YUBILEINY 29 May 05:48:55 05:54:30 20° 77° (ENE) 06:00:29 435.215
STRAND 1 29 May 05:54:53 05:59:20 32° 65° (ENE) 06:03:51 437.568
M-CUBED/EXP-1 PRIME 29 May 05:55:40 05:58:41 21° 61° (ENE) 06:01:35 437.505
AO-7 29 May 05:57:28 06:05:41 62° 296° (WNW) 06:13:52 29.400- 29.500
CUTE-I 29 May 06:00:34 06:04:10 19° 89° (E) 06:07:58 437.470
AUBIESAT-1 29 May 06:01:37 06:04:34 21° 61° (ENE) 06:07:27 437.475
PHONESAT 2.4 29 May 06:09:18 06:11:54 20° 196° (SSW) 06:14:30 2401.200-2431.200
AIST 1 29 May 06:10:52 06:13:05 14° 63° (ENE) 06:15:29
PCSat 29 May 06:19:51 06:20:39 10° 15° (NNE) 06:21:34 145.827
Cubesat XI-IV 29 May 06:21:16 06:25:49 28° 93° (E) 06:30:27 437.490
Cosmos 2491 29 May 06:47:59 06:56:51 79° 264° (W) 07:05:38 435.465 / 435.565
JAS-2 29 May 06:54:51 06:56:30 11° 306° (NW) 06:57:55 435.910
CUBESAT XI-V 29 May 06:56:08 07:00:22 35° 264° (W) 07:04:38 437.345
PRISM 29 May 07:18:14 07:22:02 37° 262° (W) 07:25:52 437.425
BRITE-PL 29 May 07:20:48 07:22:58 13° 81° (E) 07:25:25 437.365/2234.400
RS-15 29 May 07:26:22 07:34:31 27° 104° (ESE) 07:43:15 29.354- 29.394
M-CUBED/EXP-1 PRIME 29 May 07:29:30 07:33:23 39° 255° (WSW) 07:36:58 437.505
STRAND 1 29 May 07:33:43 07:38:27 38° 263° (W) 07:43:14 437.568
AUBIESAT-1 29 May 07:35:24 07:39:13 38° 255° (WSW) 07:42:46 437.475
CUTE-I 29 May 07:39:29 07:44:51 69° 288° (WNW) 07:50:11 437.470
YUBILEINY 29 May 07:41:25 07:50:13 86° 96° (E) 07:58:59 435.215
AIST 1 29 May 07:46:56 07:51:19 69° 263° (W) 07:55:41
AO-7 29 May 07:51:41 07:57:02 18° 317° (NW) 08:02:06 29.400- 29.500
HO-68 29 May 07:54:01 07:57:21 14° 83° (E) 08:01:07 435.675
Cubesat XI-IV 29 May 08:01:01 08:06:09 46° 292° (WNW) 08:11:14 437.490
DOVE 4 29 May 08:01:21 08:02:16 11° 81° (E) 08:03:29 437.250
PCSat 29 May 08:01:30 08:06:04 27° 40° (NE) 08:10:40 145.827
Cosmos 2491 29 May 08:46:49 08:52:25 18° 284° (WNW) 08:57:33 435.465 / 435.565
GOMX 1 29 May 08:47:07 08:52:15 44° 96° (E) 08:57:08 467.674
UNISAT 6 29 May 08:56:44 08:59:03 14° 60° (ENE) 09:01:31 437.425
BRITE-PL 29 May 08:56:50 09:02:33 80° 101° (ESE) 09:07:58 437.365/2234.400
CINEMA 3 29 May 08:56:51 08:59:53 17° 87° (E) 09:02:58 145.822/145.860
SO-50 29 May 09:01:06 09:04:11 16° 24° (NNE) 09:07:21 436.795
CANX-2 29 May 09:08:14 09:12:16 43° 98° (E) 09:16:18 2200.000
CUTE 1.7 + AOD 2 29 May 09:11:24 09:15:26 42° 98° (E) 09:19:26 437.475
Cosmos 2504 29 May 09:17:15 09:24:43 42° 89° (E) 09:31:49 435.465 / 435.565
CUTE-I 29 May 09:21:47 09:24:03 12° 306° (NW) 09:26:06 437.470
POPSAT HIP 1 29 May 09:22:06 09:22:53 11° 58° (ENE) 09:23:53 437.405
DUCHIFAT 1 29 May 09:22:19 09:22:45 10° 58° (ENE) 09:23:25 145.980
Oscar 11 29 May 09:29:08 09:32:11 19° 91° (E) 09:35:18 145.826/435.025
SEEDS 29 May 09:30:01 09:34:09 55° 100° (E) 09:38:15 437.485
CUBEBUG 2 29 May 09:31:42 09:34:46 19° 89° (E) 09:37:54 437.445
RS-15 29 May 09:34:37 09:45:33 90° 281° (W) 09:56:55 29.354- 29.394
DOVE 4 29 May 09:35:54 09:41:04 80° 102° (ESE) 09:45:56 437.250
ANTELSAT 29 May 09:38:03 09:42:09 32° 67° (ENE) 09:46:14 437.575/2403.000
COMPASS 1 29 May 09:39:14 09:43:20 56° 100° (E) 09:47:26 437.405
HO-68 29 May 09:39:20 09:46:31 73° 104° (ESE) 09:53:40 435.675
YUBILEINY 29 May 09:41:25 09:48:23 24° 302° (WNW) 09:55:03 435.215
PCSat 29 May 09:44:34 09:49:59 67° 241° (WSW) 09:55:20 145.827
AAUSAT CUBESAT 2 29 May 09:49:12 09:53:19 62° 100° (E) 09:57:25 437.432
DELFI C3 29 May 10:00:00 10:03:27 27° 94° (E) 10:06:56 145.870
QB50P1 29 May 10:02:46 10:06:16 25° 66° (ENE) 10:09:50 145.935-145.965
POLYITAN 1 29 May 10:06:01 10:09:40 28° 67° (ENE) 10:13:23 437.675
TIGRISAT 29 May 10:09:05 10:13:41 59° 73° (ENE) 10:18:14 435.000
UWE-3 29 May 10:13:02 10:17:09 38° 96° (E) 10:21:09 435.000/436.395/437.385
FUNcube-1 29 May 10:16:21 10:20:15 32° 95° (E) 10:24:04 145.935
GOMX 1 29 May 10:25:32 10:30:11 30° 296° (WNW) 10:34:34 467.674
AISAT 29 May 10:28:55 10:30:38 12° 86° (E) 10:32:35 437.250
UNISAT 6 29 May 10:30:34 10:35:17 84° 259° (W) 10:39:54 437.425
HUMSAT D 29 May 10:31:40 10:34:55 22° 92° (E) 10:38:12 437.325/437.525
NANOSAT C BR1 29 May 10:32:25 10:36:31 48° 71° (ENE) 10:40:41 145.865
CINEMA 3 29 May 10:32:54 10:37:35 58° 288° (WNW) 10:42:01 145.822/145.860
BRITE-PL 29 May 10:36:26 10:40:24 19° 301° (WNW) 10:44:08 437.365/2234.400
SO-50 29 May 10:40:57 10:45:51 54° 47° (NE) 10:50:41 436.795
QB50P2 29 May 10:42:13 10:46:28 63° 73° (ENE) 10:50:45 145.880/145.840
CANX-2 29 May 10:44:46 10:47:57 21° 295° (WNW) 10:51:02 2200.000
CUTE 1.7 + AOD 2 29 May 10:47:54 10:51:06 21° 295° (WNW) 10:54:14 437.475
50 SAT 29 May 10:52:39 10:55:32 20° 92° (E) 10:58:28 437.505
DUCHIFAT 1 29 May 10:53:36 10:57:52 78° 75° (ENE) 11:02:11 145.980
POPSAT HIP 1 29 May 10:53:47 10:58:05 80° 75° (ENE) 11:02:25 437.405
UKube-1 29 May 10:54:19 10:58:20 36° 97° (E) 11:02:22 .
ZACube-1 29 May 10:57:45 11:02:07 89° 103° (ESE) 11:06:21 437.345
Oscar 11 29 May 11:04:30 11:08:39 46° 289° (WNW) 11:12:45 145.826/435.025
BUGSAT 1 29 May 11:05:08 11:09:18 73° 75° (ENE) 11:13:33 437.445
DX 1 29 May 11:06:43 11:11:02 51° 100° (E) 11:15:20 434.975-435.025
SEEDS 29 May 11:06:51 11:09:35 17° 297° (WNW) 11:12:11 437.485
CUBEBUG 2 29 May 11:07:30 11:11:50 48° 289° (WNW) 11:15:59 437.445
Cosmos 2504 29 May 11:10:15 11:18:05 46° 288° (WNW) 11:25:22 435.465 / 435.565
ANTELSAT 29 May 11:14:40 11:18:54 32° 265° (W) 11:23:03 437.575/2403.000
DOVE 4 29 May 11:14:55 11:18:10 17° 301° (WNW) 11:21:10 437.250
COMPASS 1 29 May 11:15:59 11:18:38 16° 297° (WNW) 11:21:10 437.405
CUBEBUG 1 29 May 11:22:07 11:25:34 22° 92° (E) 11:29:05 437.445
AAUSAT CUBESAT 2 29 May 11:26:05 11:28:30 15° 298° (WNW) 11:30:48 437.432
HO-68 29 May 11:27:50 11:33:43 28° 304° (NW) 11:39:25 435.675
VELOX 1 29 May 11:30:49 11:35:11 48° 99° (E) 11:39:31 145.980
DANDE 29 May 11:34:01 11:39:21 21° 79° (E) 11:45:24 436.750
DELFI C3 29 May 11:35:04 11:38:34 28° 292° (WNW) 11:41:59 145.870
QB50P1 29 May 11:38:01 11:42:00 36° 263° (W) 11:45:59 145.935-145.965
POLYITAN 1 29 May 11:41:34 11:45:30 33° 264° (W) 11:49:25 437.675
ESTCUBE 1 29 May 11:43:50 11:48:07 40° 97° (E) 11:52:25 437.505/2401.250
CUSAT 1 29 May 11:46:17 11:52:50 32° 85° (E) 11:59:58 437.405
TIGRISAT 29 May 11:47:39 11:50:50 17° 271° (W) 11:53:50 435.000
RS-15 29 May 11:49:20 11:59:33 40° 336° (NNW) 12:10:06 29.354- 29.394
UWE-3 29 May 11:49:57 11:53:30 24° 295° (WNW) 11:56:54 435.000/436.395/437.385
SPROUT 29 May 11:52:00 11:54:01 13° 87° (E) 11:56:13 437.525
FUNcube-1 29 May 11:52:49 11:56:31 27° 293° (WNW) 12:00:03 145.935
AISAT 29 May 12:03:21 12:07:53 79° 286° (WNW) 12:12:21 437.250
TISAT 1 29 May 12:05:13 12:07:07 13° 87° (E) 12:09:11 437.305
HUMSAT D 29 May 12:06:58 12:10:49 36° 291° (WNW) 12:14:35 437.325/437.525
NANOSAT C BR1 29 May 12:09:35 12:12:40 18° 270° (W) 12:15:38 145.865
GONETS M04 29 May 12:11:43 12:19:24 36° 85° (E) 12:27:16
UNISAT 6 29 May 12:12:03 12:12:50 10° 276° (W) 12:13:20 437.425
QB50P2 29 May 12:20:24 12:22:51 14° 272° (W) 12:25:08 145.880/145.840
SO-50 29 May 12:22:01 12:26:08 26° 245° (WSW) 12:30:08 436.795
50 SAT 29 May 12:26:49 12:30:23 35° 290° (WNW) 12:33:54 437.505
Gurwin Techsat 1B 29 May 12:29:21 12:31:28 13° 55° (NE) 12:33:49 435.225
UKube-1 29 May 12:30:42 12:34:21 26° 295° (WNW) 12:37:57 .
DUCHIFAT 1 29 May 12:32:47 12:34:20 11° 274° (W) 12:35:39 145.980
POPSAT HIP 1 29 May 12:33:10 12:34:37 11° 274° (W) 12:35:49 437.405
ZACube-1 29 May 12:36:12 12:37:50 12° 301° (WNW) 12:39:17 437.345
BUGSAT 1 29 May 12:43:38 12:45:22 12° 274° (W) 12:46:55 437.445
DX 1 29 May 12:43:45 12:46:57 20° 298° (WNW) 12:50:03 434.975-435.025
Oscar 19 29 May 12:52:11 12:57:14 55° 71° (ENE) 13:02:20 437.125/150
CUBEBUG 1 29 May 12:57:55 13:02:09 43° 290° (WNW) 13:06:20 437.445
VELOX 1 29 May 13:08:01 13:11:27 21° 297° (WNW) 13:14:47 145.980
ITAMSAT 1 29 May 13:12:58 13:17:18 29° 64° (ENE) 13:21:45 435.822/435.867
DANDE 29 May 13:13:49 13:21:26 85° 100° (E) 13:30:06 436.750
AO-7 29 May 13:18:46 13:23:46 18° 42° (NE) 13:29:02 29.400- 29.500
ESTCUBE 1 29 May 13:21:05 13:24:49 25° 295° (WNW) 13:28:28 437.505/2401.250
SPROUT 29 May 13:26:19 13:30:40 69° 286° (WNW) 13:34:57 437.525
CUSAT 1 29 May 13:27:15 13:35:01 69° 286° (WNW) 13:43:22 437.405
TISAT 1 29 May 13:39:09 13:43:26 69° 287° (WNW) 13:47:40 437.305
Cosmos 2499 29 May 13:40:39 13:46:21 23° 83° (E) 13:52:03 435.465 / 435.565
JAS-2 29 May 13:40:49 13:43:23 13° 56° (NE) 13:46:06 435.910
AISAT 29 May 13:42:19 13:43:45 11° 303° (WNW) 13:44:59 437.250
Gurwin Techsat 1B 29 May 14:05:20 14:10:37 71° 73° (ENE) 14:15:56 435.225
RS-15 29 May 14:05:57 14:15:47 33° 9° (N) 14:26:03 29.354- 29.394
GONETS M04 29 May 14:07:14 14:15:56 58° 286° (WNW) 14:24:39
ITUPSAT 1 29 May 14:10:52 14:15:24 42° 98° (E) 14:19:58 437.325
BEESAT 29 May 14:16:45 14:21:22 48° 99° (E) 14:26:01 436.000
SWISSCUBE 29 May 14:25:37 14:30:24 64° 102° (ESE) 14:35:08 437.505
Oscar 19 29 May 14:32:53 14:36:58 22° 269° (W) 14:40:57 437.125/150
ITAMSAT 1 29 May 14:51:42 14:56:39 44° 262° (W) 15:01:37 435.822/435.867
DANDE 29 May 14:59:12 15:05:52 27° 303° (WNW) 15:12:50 436.750
AO-7 29 May 15:06:58 15:15:04 61° 64° (ENE) 15:23:16 29.400- 29.500
HORYU 2 29 May 15:07:43 15:12:02 50° 71° (ENE) 15:16:23 437.375
KKS-1 29 May 15:13:28 15:17:34 34° 96° (E) 15:21:40 437.445
CUSAT 1 29 May 15:13:49 15:19:29 19° 308° (NW) 15:24:54 437.405
O/OREOS (USA 219) 29 May 15:16:15 15:20:39 56° 111° (ESE) 15:25:04 437.305
JAS-2 29 May 15:21:24 15:27:47 70° 73° (ENE) 15:33:29 435.910
Cosmos 2499 29 May 15:30:54 15:38:54 76° 281° (W) 15:46:20 435.465 / 435.565
Gurwin Techsat 1B 29 May 15:47:39 15:51:14 17° 272° (W) 15:54:37 435.225
ITUPSAT 1 29 May 15:49:07 15:53:09 27° 295° (WNW) 15:57:04 437.325
YUBILEINY 29 May 15:53:45 15:56:42 12° 44° (NE) 16:00:11 435.215
BEESAT 29 May 15:55:10 15:58:58 23° 297° (WNW) 16:02:40 436.000
SWISSCUBE 29 May 16:04:29 16:07:50 19° 299° (WNW) 16:11:03 437.505
STARS 29 May 16:10:37 16:15:06 82° 106° (ESE) 16:19:30 437.465
GONETS M04 29 May 16:10:38 16:15:20 14° 313° (NW) 16:19:34
Cubesat XI-IV 29 May 16:11:02 16:12:14 11° 52° (NE) 16:13:42 437.490
RS-15 29 May 16:19:56 16:31:13 58° 40° (NE) 16:43:03 29.354- 29.394
HORYU 2 29 May 16:45:44 16:49:00 19° 269° (W) 16:52:09 437.375
KKS-1 29 May 16:50:16 16:54:08 28° 294° (WNW) 16:57:54 437.445
BEESAT 2 29 May 16:55:22 16:58:17 19° 114° (ESE) 17:01:20 435.950
O/OREOS (USA 219) 29 May 16:57:01 17:00:27 21° 311° (NW) 17:03:49 437.305
AO-7 29 May 17:00:54 17:08:23 35° 265° (W) 17:15:47 29.400- 29.500
MOZHAYETS 4 29 May 17:02:30 17:06:51 42° 98° (E) 17:11:12
JAS-2 29 May 17:08:39 17:13:24 21° 270° (W) 17:17:37 435.910
CUTE-I 29 May 17:25:03 17:29:57 40° 67° (ENE) 17:34:56 437.470
Cosmos 2499 29 May 17:28:37 17:33:30 17° 304° (NW) 17:37:53 435.465 / 435.565
BEESAT 3 29 May 17:39:10 17:43:12 62° 123° (ESE) 17:47:17 437.485
Cubesat XI-IV 29 May 17:46:10 17:51:23 60° 71° (ENE) 17:56:40 437.490
YUBILEINY 29 May 17:47:57 17:56:21 51° 72° (ENE) 18:04:48 435.215
STARS 29 May 17:48:45 17:50:58 13° 301° (WNW) 17:53:01 437.465
Cosmos 2491 29 May 17:58:15 18:04:57 26° 81° (E) 18:11:58 435.465 / 435.565
GOMX 1 29 May 18:23:43 18:25:26 12° 54° (NE) 18:27:24 467.674
HO-68 29 May 18:26:32 18:31:01 19° 50° (NE) 18:35:44 435.675
BEESAT 2 29 May 18:32:00 18:36:03 53° 312° (NW) 18:40:08 435.950
RS-15 29 May 18:32:40 18:43:51 56° 245° (WSW) 18:55:23 29.354- 29.394
BRITE-PL 29 May 18:33:34 18:37:21 20° 60° (ENE) 18:41:25 437.365/2234.400
MOZHAYETS 4 29 May 18:40:10 18:43:53 24° 295° (WNW) 18:47:30
AIST 2 29 May 18:40:21 18:44:33 63° 124° (ESE) 18:48:49 435.215
CUBESAT XI-V 29 May 18:49:11 18:53:43 46° 98° (E) 18:58:16 437.345
PRISM 29 May 18:57:35 19:00:54 23° 93° (E) 19:04:17 437.425
CUTE-I 29 May 19:05:25 19:10:09 31° 266° (W) 19:14:51 437.470
Cosmos 2504 29 May 19:06:30 19:10:37 16° 55° (NE) 19:15:01 435.465 / 435.565
DOVE 4 29 May 19:08:11 19:11:37 18° 60° (ENE) 19:15:15 437.250
BEESAT 3 29 May 19:18:18 19:21:33 22° 323° (NW) 19:24:47 437.485
Cubesat XI-IV 29 May 19:27:56 19:31:58 21° 270° (W) 19:35:52 437.490
